Вернуться в каталог

FALCON 9 R/B

АктивенHEO
NORAD 55972·ROCKET BODY·🇺🇸 United States

Запущен Mar 17, 2023 с Cape Canaveral Space Force Station

Loading…

Ближайшие Пролёты (ближайшие 24 часа)

TLE

СвежийSource: Space-Track

Эпоха: Sep 14, 2026, 17:25 UTC

1 55972U 23038C   26257.72634157  .00001248  00000-0  74430-3 0  9997
2 55972  26.9466  73.6178 5824210  55.3589 346.6929  4.23739806 53731

Отслеживайте FALCON 9 R/B в реальном времени с AllMySat

Download on the App Store